ONEWEB-0111 (47261 NORAD) Tracking and Keplerian Element Data
This shows tracking and keplerian element data for the satellite.
Feedback or suggestion? Click here.
Element | Value |
Catalog | 47261 |
Name | ONEWEB-0111 |
Epoch Orbit | 174 |
Epoch Day | 62.91667824 |
Epoch Year | 2021 |
RAAN | 15.3503 |
Inclination | 87.5866 |
Eccentricity | 0.0011373 |
Argument of Perigee | 31.2394 |
Mean Anonmoly | 330.817 |
Mean Motion | 13.8588048 |
Decay Rate | -0.00991301 |
L1 | 1 47261U 20100D 21062.91667824 -.00991301 00000-0 -91370+0 0 9991 |
L2 | 2 47261 87.5866 15.3503 0011373 31.2394 330.8170 13.85880480 1745 |
Live tracking and technical data element details for ONEWEB-0111 (NORAD 47261). ONEWEB-0111 can be tracked NOW for your location showing map with azimuth and elevation plus other details from your city location.
Track the satellite on the map from your city or location and see movement details for azimuth, elevation, latitude, longitude, range, height, and movement on the map or in text.
IsCatalogInMostPopularTable: catalog: 47261, numindb: 26
Update: records affected: 1
GetName: 47261 ONEWEB-0111
Hit Count: updated at: Fri, 05 Mar 2021 06:51:40 GMT